Location: Observatoire
(46.1952°N, 5.3391°E)
Time: 22:32:06
(UTC+01:00)

Tiros 1 despin weight - Pass Details

Date: 26 February 2026
Orbit: 556 x 593 km, 48.2° (Epoch: 9 March)

Event Time Altitude Azimuth Distance (km) Brightness Sun altitude
Rises 11:45:15 0° 210° (SSW) 2,763 ? 33.2°
Reaches altitude 10° 11:47:49 10° 197° (SSW) 1,861 ? 33.4°
Maximum altitude 11:51:16 24° 143° (SE) 1,176 ? 33.5°
Drops below altitude 10° 11:54:43 10° 88° (E) 1,852 ? 33.7°
Sets 11:57:15 0° 75° (ENE) 2,745 ? 33.9°
